Flag for U.S.A. Weather past 2 weeks in Oceanside, California, U.S.A.

Now
70 °F

Overcast.


Feels Like: 71 °F
Forecast: 65 / 79 °F
Wind: No wind

Location: Oceanside Weather Reporting Station

Current Time: Aug 2, 2015 at 7:59:47 AM

Latest Report: Aug 2, 2015 at 6:52 AM


Visibility: 8 mi

Pressure: 29.89 "Hg

Humidity: 79%

Dew point: 63 °F

Location of OceansideLocation

Historic Weather in Oceanside — Graph

°F

Oceanside temperature yesterday

Maximum temperature yesterday: 78 °F (at 12:52 PM)
Minimum temperature yesterday: 69 °F (at 8:52 PM)
Average temperature yesterday: 72 °F

Past Weeks' High & Low Weather Summary

 TemperatureHumidityPressure
High86 °F (Jul 19, 10:52 AM)94% (Jul 20, 4:52 AM)30.06 "Hg (Jul 20, 4:52 AM)
Low60 °F (Jul 28, 12:52 AM)35% (Jul 19, 11:52 AM)29.83 "Hg (Jul 22, 5:52 PM)
Average73 °F76%29.94 "Hg
* Reported Jul 18 6:52 AM — Aug 2 6:52 AM, Oceanside, Weather by CustomWeather, © 2015

Note: Actual official high and low records may vary slightly from our data, if they occured in-between our weather recording intervals... More about our weather records

Advertising

Oceanside weather history for previous 24 hours

 ConditionsComfort  
Time TempWeatherWind HumidityBarometerVisibility
6:52 AM
Sun, Aug 2
70 °FOvercast.No wind79%29.89 "Hg8 mi
5:52 AM69 °FOvercast.5 mph81%29.88 "Hg9 mi
4:52 AM69 °FOvercast.3 mph81%29.87 "Hg10 mi
3:52 AM69 °FOvercast.No wind81%29.87 "Hg10 mi
2:52 AM70 °FOvercast.5 mph79%29.88 "Hg10 mi
1:52 AM70 °FOvercast.No wind79%29.90 "Hg10 mi
12:52 AM70 °FOvercast.No wind81%29.91 "Hg9 mi
11:52 PM
Sat, Aug 1
71 °FOvercast.6 mph76%29.91 "Hg10 mi
10:52 PM70 °FOvercast.3 mph81%29.92 "Hg10 mi
9:59 PM70 °FPassing clouds.No wind79%29.92 "Hg10 mi
8:52 PM69 °FPassing clouds.5 mph81%29.90 "Hg10 mi
7:52 PM70 °FScattered clouds.3 mph79%29.90 "Hg9 mi
6:52 PM71 °FPassing clouds.5 mph76%29.89 "Hg10 mi
5:52 PM74 °FSunny.8 mph69%29.89 "Hg10 mi
4:52 PM75 °FPassing clouds.8 mph66%29.90 "Hg10 mi
3:52 PM74 °FOvercast.12 mph69%29.91 "Hg10 mi
2:52 PM75 °FPassing clouds.8 mph66%29.91 "Hg10 mi
1:52 PM78 °FSunny.10 mph62%29.92 "Hg10 mi
12:52 PM78 °FPassing clouds.7 mph62%29.94 "Hg10 mi
11:52 AM76 °FPartly sunny.8 mph67%29.95 "Hg10 mi
10:52 AM74 °FOvercast.8 mph71%29.96 "Hg9 mi
9:52 AM74 °FOvercast.7 mph74%29.97 "Hg8 mi
8:52 AM72 °FOvercast.3 mph76%29.97 "Hg10 mi
7:52 AM71 °FOvercast.No wind81%29.98 "Hg8 mi
Weather by CustomWeather, © 2015

See weather overviewHow to use our weather pages